Satellite-Ground Cal/Val Site Overpasses Predictions

Prediction of Satellite NPP Overpassing Cal/Val Site: Antarctic Dome C

Ground Cal/Val Site Location: Latitude: -75.10, Longitude: 123.35; Satellite-Ground Site NADIR distance within 100 km.

Table of predicted overpasses for the next 14.0 days since TLE Epoch: 4/17/2021
Interval Starting Time Ending Time Minimum Distance Time Minimum Distance (km)
1 04/17/2021 07:18:17 04/17/2021 07:18:36 04/17/2021 07:18:26 76.61
2 04/19/2021 15:00:30 04/19/2021 15:00:54 04/19/2021 15:00:42 56.79
3 04/20/2021 14:41:40 04/20/2021 14:42:05 04/20/2021 14:41:53 52.34
4 04/21/2021 07:43:21 04/21/2021 07:43:42 04/21/2021 07:43:31 68.64
5 04/22/2021 07:24:28 04/22/2021 07:24:54 04/22/2021 07:24:41 39.46
6 04/24/2021 15:06:52 04/24/2021 15:07:01 04/24/2021 15:06:57 94.21
7 04/25/2021 14:47:52 04/25/2021 14:48:21 04/25/2021 14:48:07 17.00
8 04/27/2021 07:30:41 04/27/2021 07:31:10 04/27/2021 07:30:55 3.89
